AFL040 UUEE-ULLI

Flight info

Callsign AFL040
Flight time N/A
Altitude 34000
Route N0540F340 TOKNU L4 NUDKO T561 ODATI T875 GENPA
Aircraft A359/H-VGDW/C

Departure

Time N/A
Airport Sheremetyevo International Airport (UUEE)

Arrival

Time 2026-05-01 07:51
Airport Pulkovo Airport (ULLI)
Time Latitude Longitude Altitude Speed Heading
2026-05-01 07:23 58.27724 33.14299 33451 ft 388 kts 329°
2026-05-01 07:23 58.31890 33.07775 32448 ft 388 kts 329°
2026-05-01 07:24 58.33981 33.04508 31973 ft 388 kts 329°
2026-05-01 07:24 58.36072 33.01240 31502 ft 389 kts 329°
2026-05-01 07:24 58.38135 32.98011 31032 ft 389 kts 329°
2026-05-01 07:24 58.40229 32.94729 30555 ft 390 kts 329°
2026-05-01 07:25 58.42320 32.91443 30039 ft 388 kts 329°
2026-05-01 07:25 58.44390 32.88190 29538 ft 383 kts 329°
2026-05-01 07:25 58.46433 32.84990 29078 ft 377 kts 329°
2026-05-01 07:25 58.48448 32.81830 28623 ft 373 kts 329°
2026-05-01 07:26 58.50440 32.78696 28167 ft 368 kts 329°
2026-05-01 07:26 58.52402 32.75598 27689 ft 364 kts 329°
2026-05-01 07:26 58.54346 32.72520 27229 ft 361 kts 329°
2026-05-01 07:26 58.56270 32.69467 26776 ft 357 kts 329°
2026-05-01 07:27 58.58176 32.66436 26326 ft 354 kts 329°
2026-05-01 07:27 58.60065 32.63429 25863 ft 352 kts 329°
2026-05-01 07:27 58.61943 32.60435 25393 ft 350 kts 329°
2026-05-01 07:27 58.63810 32.57453 24945 ft 348 kts 329°
2026-05-01 07:28 58.65667 32.54485 24480 ft 347 kts 329°
2026-05-01 07:28 58.67516 32.51523 24016 ft 345 kts 328°
2026-05-01 07:28 58.69356 32.48572 23528 ft 344 kts 328°
2026-05-01 07:28 58.71185 32.45634 23001 ft 341 kts 328°
2026-05-01 07:29 58.72999 32.42711 22556 ft 338 kts 328°
2026-05-01 07:29 58.74786 32.39826 22100 ft 335 kts 328°
2026-05-01 07:29 58.76569 32.36945 21642 ft 332 kts 328°
2026-05-01 07:29 58.78332 32.34091 21195 ft 330 kts 328°
2026-05-01 07:30 58.80084 32.31257 20736 ft 328 kts 328°
2026-05-01 07:30 58.81829 32.28431 20292 ft 327 kts 327°
2026-05-01 07:30 58.83562 32.25619 19846 ft 326 kts 327°
2026-05-01 07:30 58.85293 32.22806 19387 ft 325 kts 327°
2026-05-01 07:31 58.87025 32.19989 18932 ft 324 kts 327°
2026-05-01 07:31 58.92190 32.11563 17512 ft 322 kts 326°
2026-05-01 07:32 58.95586 32.06006 16661 ft 317 kts 326°
2026-05-01 07:32 58.97265 32.03250 16244 ft 315 kts 326°
2026-05-01 07:33 59.00595 31.97794 15441 ft 311 kts 326°
2026-05-01 07:33 59.02241 31.95100 15064 ft 308 kts 326°
2026-05-01 07:33 59.05492 31.89753 14320 ft 304 kts 325°
2026-05-01 07:34 59.07100 31.87098 13964 ft 302 kts 325°
2026-05-01 07:34 59.10263 31.81861 13258 ft 294 kts 325°
2026-05-01 07:34 59.11798 31.79249 12950 ft 292 kts 322°
2026-05-01 07:35 59.13256 31.76483 12631 ft 294 kts 321°
2026-05-01 07:35 59.14704 31.73675 12300 ft 293 kts 321°
2026-05-01 07:35 59.16148 31.70890 11989 ft 292 kts 321°
2026-05-01 07:35 59.17596 31.68114 11667 ft 291 kts 321°
2026-05-01 07:36 59.19040 31.65358 11347 ft 290 kts 321°
2026-05-01 07:36 59.20478 31.62614 11025 ft 289 kts 320°
2026-05-01 07:36 59.21912 31.59878 10722 ft 288 kts 320°
2026-05-01 07:36 59.23335 31.57161 10480 ft 282 kts 320°
2026-05-01 07:37 59.26013 31.52031 10216 ft 262 kts 321°
2026-05-01 07:37 59.27301 31.49573 10094 ft 261 kts 321°
2026-05-01 07:37 59.28624 31.47054 9943 ft 268 kts 320°
2026-05-01 07:38 59.29959 31.44496 9650 ft 268 kts 320°
2026-05-01 07:38 59.31286 31.41946 9368 ft 267 kts 320°
2026-05-01 07:38 59.33930 31.36852 8822 ft 265 kts 320°
2026-05-01 07:39 59.35249 31.34308 8563 ft 264 kts 320°
2026-05-01 07:39 59.36540 31.31814 8308 ft 263 kts 319°
2026-05-01 07:39 59.39138 31.26793 7765 ft 261 kts 319°
2026-05-01 07:40 59.40432 31.24286 7517 ft 260 kts 319°
2026-05-01 07:40 59.41719 31.21791 7249 ft 260 kts 319°
2026-05-01 07:40 59.43003 31.19300 6978 ft 259 kts 319°
2026-05-01 07:40 59.44283 31.16815 6713 ft 258 kts 318°
2026-05-01 07:41 59.45561 31.14329 6451 ft 257 kts 318°
2026-05-01 07:41 59.46826 31.11863 6176 ft 256 kts 318°
2026-05-01 07:41 59.49346 31.06942 5647 ft 254 kts 318°
2026-05-01 07:42 59.50593 31.04504 5392 ft 252 kts 318°
2026-05-01 07:42 59.51833 31.02079 5079 ft 251 kts 318°
2026-05-01 07:42 59.53021 30.99582 4920 ft 248 kts 314°
2026-05-01 07:42 59.54187 30.97049 4860 ft 250 kts 316°
2026-05-01 07:43 59.55413 30.94623 4748 ft 249 kts 317°
2026-05-01 07:43 59.56653 30.92240 4606 ft 250 kts 317°
2026-05-01 07:43 59.59135 30.87426 4343 ft 250 kts 317°
2026-05-01 07:44 59.61193 30.83404 4120 ft 250 kts 316°
2026-05-01 07:44 59.63656 30.78557 3986 ft 251 kts 316°
2026-05-01 07:45 59.64888 30.76128 3988 ft 251 kts 316°
2026-05-01 07:45 59.66123 30.73686 3962 ft 251 kts 316°
2026-05-01 07:45 59.67356 30.71245 3704 ft 251 kts 316°
2026-05-01 07:45 59.68578 30.68828 3505 ft 243 kts 316°
2026-05-01 07:46 59.69748 30.66504 3363 ft 233 kts 316°
2026-05-01 07:46 59.70873 30.64274 3229 ft 224 kts 316°
2026-05-01 07:46 59.72985 30.60103 3009 ft 207 kts 316°
2026-05-01 07:47 59.73997 30.58131 2936 ft 201 kts 317°
2026-05-01 07:47 59.74863 30.56007 2885 ft 191 kts 303°
2026-05-01 07:47 59.75321 30.53649 2832 ft 182 kts 285°
2026-05-01 07:47 59.75609 30.51191 2625 ft 183 kts 285°
2026-05-01 07:48 59.76331 30.46545 2112 ft 170 kts 287°
2026-05-01 07:48 59.76647 30.44348 1842 ft 161 kts 286°
2026-05-01 07:48 59.76959 30.42261 1595 ft 154 kts 287°
2026-05-01 07:49 59.77262 30.40263 1368 ft 148 kts 287°
2026-05-01 07:49 59.77815 30.36574 1022 ft 135 kts 286°
2026-05-01 07:49 59.78077 30.34774 832 ft 136 kts 286°
2026-05-01 07:50 59.78349 30.32980 634 ft 136 kts 287°
2026-05-01 07:50 59.78863 30.29401 246 ft 134 kts 285°
2026-05-01 07:50 59.79124 30.27627 109 ft 132 kts 287°
2026-05-01 07:51 59.79364 30.26044 93 ft 95 kts 287°
2026-05-01 07:51 59.79488 30.25218 92 ft 50 kts 285°
2026-05-01 07:51 59.79582 30.24581 93 ft 46 kts 286°
2026-05-01 07:52 59.79745 30.23488 92 ft 32 kts 286°
2026-05-01 07:52 59.79839 30.23191 91 ft 20 kts 311°
2026-05-01 07:52 59.79890 30.23083 87 ft 11 kts 314°
2026-05-01 07:53 59.79972 30.23096 87 ft 6 kts 83°
2026-05-01 07:53 59.79960 30.23229 88 ft 12 kts 105°
2026-05-01 07:53 59.79936 30.23406 89 ft 15 kts 106°
2026-05-01 07:53 59.79903 30.23614 90 ft 18 kts 107°
2026-05-01 07:54 59.79828 30.24117 91 ft 18 kts 106°
2026-05-01 07:55 59.79709 30.24919 93 ft 22 kts 107°
2026-05-01 07:55 59.79636 30.25410 92 ft 18 kts 106°
2026-05-01 07:56 59.79531 30.26116 93 ft 14 kts 106°
2026-05-01 07:56 59.79533 30.26315 94 ft 4 kts 37°
2026-05-01 07:57 59.79568 30.26334 91 ft 7 kts 14°
2026-05-01 07:57 59.79707 30.26415 92 ft 7 kts 18°
2026-05-01 07:58 59.79732 30.26522 91 ft 6 kts 103°
2026-05-01 07:58 59.79721 30.26604 91 ft 0 kts 105°